Time,TemperatureF,DewpointF,PressureIn,WindDirection,WindDirectionDegrees,WindSpeedMPH,WindSpeedGustMPH,Humidity,HourlyPrecipIn,Conditions,Clouds,dailyrainin,SolarRadiationWatts/m^2,SoftwareType,DateUTC
2013-06-13 00:01:00,71.2,69.1,29.83,NNW,348,1.0,3.0,93,0.00,,,0.00,0,Wunderground v.1.15,2013-06-13 04:01:00,
2013-06-13 00:02:00,71.2,68.8,29.84,North,360,1.0,4.0,92,0.00,,,0.00,0,Wunderground v.1.15,2013-06-13 04:02:00,
2013-06-13 00:03:00,71.2,68.8,29.83,NNW,347,1.0,4.0,92,0.00,,,0.00,0,Wunderground v.1.15,2013-06-13 04:03:00,
2013-06-13 00:08:00,71.2,68.8,29.82,NNW,347,2.0,4.0,92,0.00,,,0.00,0,Wunderground v.1.15,2013-06-13 04:08:00,
2013-06-13 00:09:00,71.2,68.8,29.82,NNW,344,2.0,4.0,92,0.00,,,0.00,0,Wunderground v.1.15,2013-06-13 04:09:00,
2013-06-13 00:14:00,71.1,68.7,29.83,NNW,348,1.0,2.0,92,0.00,,,0.00,0,Wunderground v.1.15,2013-06-13 04:14:00,
2013-06-13 00:19:00,71.1,68.7,29.83,NW,319,1.0,3.0,92,0.00,,,0.00,0,Wunderground v.1.15,2013-06-13 04:19:00,
2013-06-13 00:24:00,71.1,68.7,29.83,NW,317,1.0,2.0,92,0.00,,,0.00,0,Wunderground v.1.15,2013-06-13 04:24:00,
2013-06-13 00:29:00,71.1,68.7,29.84,NW,315,0.0,2.0,92,0.00,,,0.00,0,Wunderground v.1.15,2013-06-13 04:29:00,
2013-06-13 00:35:00,71.1,68.7,29.84,NW,317,0.0,0.0,92,0.00,,,0.00,0,Wunderground v.1.15,2013-06-13 04:35:00,
2013-06-13 00:40:00,71.1,69.0,29.84,NW,315,0.0,0.0,93,0.00,,,0.00,0,Wunderground v.1.15,2013-06-13 04:40:00,
2013-06-13 00:45:00,71.1,69.0,29.83,NW,317,0.0,0.0,93,0.00,,,0.00,0,Wunderground v.1.15,2013-06-13 04:45:00,
2013-06-13 00:51:00,71.1,69.0,29.83,NW,319,0.0,0.0,93,0.00,,,0.00,0,Wunderground v.1.15,2013-06-13 04:51:00,
2013-06-13 00:56:00,71.1,69.0,29.83,NW,316,0.0,0.0,93,0.00,,,0.01,0,Wunderground v.1.15,2013-06-13 04:56:00,
2013-06-13 01:02:00,71.2,69.1,29.83,NW,315,0.0,0.0,93,0.00,,,0.01,0,Wunderground v.1.15,2013-06-13 05:02:00,
2013-06-13 01:07:00,71.1,69.0,29.84,NW,319,0.0,1.0,93,0.00,,,0.01,0,Wunderground v.1.15,2013-06-13 05:07:00,
2013-06-13 01:12:00,71.0,68.9,29.84,West,271,1.0,2.0,93,0.00,,,0.01,0,Wunderground v.1.15,2013-06-13 05:12:00,
2013-06-13 01:18:00,70.9,68.8,29.83,West,269,1.0,2.0,93,0.00,,,0.02,0,Wunderground v.1.15,2013-06-13 05:18:00,
2013-06-13 01:23:00,70.9,68.8,29.83,West,270,0.0,1.0,93,0.12,,,0.03,0,Wunderground v.1.15,2013-06-13 05:23:00,
2013-06-13 01:29:00,71.0,69.2,29.83,WSW,257,1.0,3.0,94,0.12,,,0.05,0,Wunderground v.1.15,2013-06-13 05:29:00,
2013-06-13 01:34:00,71.2,69.4,29.84,WNW,282,1.0,2.0,94,0.28,,,0.07,0,Wunderground v.1.15,2013-06-13 05:34:00,
2013-06-13 01:39:00,71.1,69.3,29.85,WSW,255,1.0,3.0,94,0.11,,,0.07,0,Wunderground v.1.15,2013-06-13 05:39:00,
2013-06-13 01:44:00,71.1,69.3,29.85,WSW,249,1.0,1.0,94,0.06,,,0.07,0,Wunderground v.1.15,2013-06-13 05:44:00,
2013-06-13 01:50:00,71.1,69.3,29.84,ENE,76,1.0,2.0,94,0.04,,,0.07,0,Wunderground v.1.15,2013-06-13 05:50:00,
2013-06-13 01:55:00,71.0,69.2,29.84,East,82,2.0,2.0,94,0.00,,,0.07,0,Wunderground v.1.15,2013-06-13 05:55:00,
2013-06-13 02:00:00,71.0,69.2,29.84,East,84,1.0,1.0,94,0.00,,,0.07,0,Wunderground v.1.15,2013-06-13 06:00:00,
2013-06-13 02:06:00,71.0,69.2,29.83,East,83,0.0,1.0,94,0.00,,,0.08,0,Wunderground v.1.15,2013-06-13 06:06:00,
2013-06-13 02:12:00,71.1,69.3,29.83,East,80,0.0,1.0,94,0.00,,,0.08,0,Wunderground v.1.15,2013-06-13 06:12:00,
2013-06-13 02:17:00,71.0,69.2,29.83,SW,223,1.0,6.0,94,0.00,,,0.08,0,Wunderground v.1.15,2013-06-13 06:17:00,
2013-06-13 02:22:00,71.0,69.2,29.84,SW,216,4.0,7.0,94,0.00,,,0.08,0,Wunderground v.1.15,2013-06-13 06:22:00,
2013-06-13 02:28:00,70.8,69.0,29.83,SW,217,8.0,14.0,94,0.00,,,0.08,0,Wunderground v.1.15,2013-06-13 06:28:00,
2013-06-13 02:33:00,70.6,68.8,29.82,SSW,204,10.0,11.0,94,0.00,,,0.09,0,Wunderground v.1.15,2013-06-13 06:33:00,
2013-06-13 02:38:00,70.2,68.1,29.81,WSW,254,9.0,12.0,93,0.00,,,0.09,0,Wunderground v.1.15,2013-06-13 06:38:00,
2013-06-13 02:44:00,69.5,66.4,29.80,SW,217,9.0,13.0,90,0.00,,,0.09,0,Wunderground v.1.15,2013-06-13 06:44:00,
2013-06-13 02:49:00,69.2,66.1,29.80,SW,216,8.0,13.0,90,0.00,,,0.09,0,Wunderground v.1.15,2013-06-13 06:49:00,
2013-06-13 02:54:00,68.8,65.7,29.80,SSW,202,6.0,9.0,90,0.00,,,0.09,0,Wunderground v.1.15,2013-06-13 06:54:00,
2013-06-13 02:59:00,68.4,65.4,29.80,SSW,209,7.0,12.0,90,0.00,,,0.09,0,Wunderground v.1.15,2013-06-13 06:59:00,
2013-06-13 03:05:00,68.0,65.0,29.81,SW,214,8.0,10.0,90,0.00,,,0.09,0,Wunderground v.1.15,2013-06-13 07:05:00,
2013-06-13 03:11:00,67.7,64.7,29.81,WSW,244,7.0,8.0,90,0.00,,,0.09,0,Wunderground v.1.15,2013-06-13 07:11:00,
2013-06-13 03:16:00,67.5,64.5,29.81,SSW,205,6.0,10.0,90,0.00,,,0.09,0,Wunderground v.1.15,2013-06-13 07:16:00,
2013-06-13 03:22:00,67.2,64.2,29.80,South,185,6.0,7.0,90,0.00,,,0.09,0,Wunderground v.1.15,2013-06-13 07:22:00,
2013-06-13 03:27:00,66.9,64.2,29.79,SW,219,5.0,7.0,91,0.00,,,0.09,0,Wunderground v.1.15,2013-06-13 07:27:00,
2013-06-13 03:32:00,66.7,64.0,29.78,South,186,4.0,4.0,91,0.00,,,0.09,0,Wunderground v.1.15,2013-06-13 07:32:00,
2013-06-13 03:37:00,66.5,63.8,29.78,SSW,196,4.0,5.0,91,0.00,,,0.09,0,Wunderground v.1.15,2013-06-13 07:37:00,
2013-06-13 03:43:00,66.2,63.8,29.78,SW,221,4.0,5.0,92,0.00,,,0.09,0,Wunderground v.1.15,2013-06-13 07:43:00,
2013-06-13 03:48:00,66.0,63.6,29.78,SSW,213,4.0,5.0,92,0.00,,,0.09,0,Wunderground v.1.15,2013-06-13 07:48:00,
2013-06-13 03:53:00,65.7,63.3,29.77,SSW,213,3.0,3.0,92,0.00,,,0.09,0,Wunderground v.1.15,2013-06-13 07:53:00,
2013-06-13 03:59:00,65.5,63.1,29.77,SW,222,2.0,6.0,92,0.00,,,0.09,0,Wunderground v.1.15,2013-06-13 07:59:00,
2013-06-13 04:05:00,65.3,62.9,29.77,SSW,201,2.0,5.0,92,0.00,,,0.09,0,Wunderground v.1.15,2013-06-13 08:05:00,
2013-06-13 04:10:00,65.1,62.7,29.76,SSW,198,4.0,7.0,92,0.00,,,0.09,0,Wunderground v.1.15,2013-06-13 08:10:00,
2013-06-13 04:15:00,65.0,62.6,29.75,SSW,207,4.0,7.0,92,0.00,,,0.09,0,Wunderground v.1.15,2013-06-13 08:15:00,
2013-06-13 04:21:00,64.8,62.4,29.75,SSW,209,3.0,5.0,92,0.00,,,0.09,0,Wunderground v.1.15,2013-06-13 08:21:00,
2013-06-13 04:26:00,64.7,62.3,29.75,SSW,212,3.0,6.0,92,0.00,,,0.09,0,Wunderground v.1.15,2013-06-13 08:26:00,
2013-06-13 04:31:00,64.5,62.1,29.74,SSW,201,3.0,3.0,92,0.00,,,0.09,0,Wunderground v.1.15,2013-06-13 08:31:00,
2013-06-13 04:37:00,64.4,62.3,29.74,SSW,200,2.0,3.0,93,0.00,,,0.09,0,Wunderground v.1.15,2013-06-13 08:37:00,
2013-06-13 04:42:00,64.3,62.2,29.73,SSW,200,0.0,1.0,93,0.00,,,0.09,0,Wunderground v.1.15,2013-06-13 08:42:00,
2013-06-13 04:47:00,64.1,61.7,29.74,SSW,201,0.0,2.0,92,0.00,,,0.09,0,Wunderground v.1.15,2013-06-13 08:47:00,
2013-06-13 04:53:00,64.0,61.9,29.73,South,190,1.0,2.0,93,0.00,,,0.09,0,Wunderground v.1.15,2013-06-13 08:53:00,
2013-06-13 04:58:00,63.9,61.8,29.73,SSW,193,1.0,2.0,93,0.00,,,0.09,0,Wunderground v.1.15,2013-06-13 08:58:00,
2013-06-13 05:04:00,63.9,61.8,29.72,South,189,0.0,1.0,93,0.00,,,0.09,0,Wunderground v.1.15,2013-06-13 09:04:00,
2013-06-13 05:09:00,63.8,61.7,29.72,SSW,192,0.0,1.0,93,0.00,,,0.09,0,Wunderground v.1.15,2013-06-13 09:09:00,
2013-06-13 05:15:00,63.8,62.0,29.72,South,190,0.0,1.0,94,0.00,,,0.09,0,Wunderground v.1.15,2013-06-13 09:15:00,
2013-06-13 05:20:00,63.7,61.6,29.72,South,190,0.0,0.0,93,0.00,,,0.09,0,Wunderground v.1.15,2013-06-13 09:20:00,
2013-06-13 05:25:00,63.6,61.5,29.72,SSW,192,0.0,0.0,93,0.00,,,0.09,0,Wunderground v.1.15,2013-06-13 09:25:00,
2013-06-13 05:31:00,63.6,61.8,29.71,South,190,0.0,0.0,94,0.00,,,0.09,0,Wunderground v.1.15,2013-06-13 09:31:00,
2013-06-13 05:36:00,63.7,61.9,29.71,SSW,192,0.0,0.0,94,0.00,,,0.09,0,Wunderground v.1.15,2013-06-13 09:36:00,
2013-06-13 05:41:00,63.6,61.8,29.70,South,190,0.0,0.0,94,0.00,,,0.09,0,Wunderground v.1.15,2013-06-13 09:41:00,
2013-06-13 05:47:00,63.6,61.8,29.70,SSW,192,0.0,2.0,94,0.00,,,0.09,0,Wunderground v.1.15,2013-06-13 09:47:00,
2013-06-13 05:52:00,63.6,61.8,29.70,SSW,193,0.0,0.0,94,0.00,,,0.09,0,Wunderground v.1.15,2013-06-13 09:52:00,
2013-06-13 05:57:00,63.6,61.8,29.70,South,190,0.0,0.0,94,0.00,,,0.09,0,Wunderground v.1.15,2013-06-13 09:57:00,
2013-06-13 06:03:00,63.6,61.8,29.69,South,190,0.0,0.0,94,0.00,,,0.09,0,Wunderground v.1.15,2013-06-13 10:03:00,
2013-06-13 06:09:00,63.5,61.7,29.70,SSW,193,0.0,0.0,94,0.00,,,0.09,0,Wunderground v.1.15,2013-06-13 10:09:00,
2013-06-13 06:14:00,63.5,61.7,29.70,SSW,192,0.0,2.0,94,0.00,,,0.09,0,Wunderground v.1.15,2013-06-13 10:14:00,
2013-06-13 06:19:00,63.5,61.7,29.71,NNW,331,0.0,4.0,94,0.00,,,0.09,0,Wunderground v.1.15,2013-06-13 10:19:00,
2013-06-13 06:25:00,64.4,62.9,29.75,WNW,292,7.0,16.0,95,0.27,,,0.13,0,Wunderground v.1.15,2013-06-13 10:25:00,
2013-06-13 06:30:00,65.8,64.3,29.74,WNW,284,12.0,12.0,95,1.74,,,0.23,0,Wunderground v.1.15,2013-06-13 10:30:00,
2013-06-13 06:35:00,66.4,64.9,29.74,WSW,255,9.0,12.0,95,0.22,,,0.27,0,Wunderground v.1.15,2013-06-13 10:35:00,
2013-06-13 06:41:00,66.8,65.0,29.75,NW,306,5.0,9.0,94,0.10,,,0.27,0,Wunderground v.1.15,2013-06-13 10:41:00,
2013-06-13 06:46:00,67.1,65.0,29.77,West,269,5.0,11.0,93,0.06,,,0.28,0,Wunderground v.1.15,2013-06-13 10:46:00,
2013-06-13 06:51:00,67.1,65.0,29.75,WNW,285,4.0,5.0,93,0.06,,,0.28,7,Wunderground v.1.15,2013-06-13 10:51:00,
2013-06-13 06:56:00,67.2,65.1,29.74,WNW,287,3.0,6.0,93,0.05,,,0.28,11,Wunderground v.1.15,2013-06-13 10:56:00,
2013-06-13 07:02:00,67.2,65.1,29.74,North,355,3.0,3.0,93,0.05,,,0.29,16,Wunderground v.1.15,2013-06-13 11:02:00,
2013-06-13 07:08:00,67.2,65.1,29.73,NW,315,3.0,10.0,93,0.05,,,0.29,28,Wunderground v.1.15,2013-06-13 11:08:00,
2013-06-13 07:13:00,67.3,64.9,29.74,North,360,4.0,5.0,92,0.04,,,0.29,40,Wunderground v.1.15,2013-06-13 11:13:00,
2013-06-13 07:19:00,67.4,65.3,29.74,SSW,211,4.0,15.0,93,0.00,,,0.29,32,Wunderground v.1.15,2013-06-13 11:19:00,
2013-06-13 07:24:00,67.3,65.2,29.76,North,360,4.0,6.0,93,0.00,,,0.30,25,Wunderground v.1.15,2013-06-13 11:24:00,
2013-06-13 07:29:00,67.3,65.2,29.75,SW,234,4.0,8.0,93,0.14,,,0.31,25,Wunderground v.1.15,2013-06-13 11:29:00,
2013-06-13 07:34:00,67.1,65.0,29.74,South,184,6.0,12.0,93,0.09,,,0.32,21,Wunderground v.1.15,2013-06-13 11:34:00,
2013-06-13 07:40:00,67.0,64.9,29.75,SW,221,6.0,6.0,93,0.16,,,0.33,21,Wunderground v.1.15,2013-06-13 11:40:00,
2013-06-13 07:45:00,66.9,64.5,29.75,WSW,256,6.0,11.0,92,0.14,,,0.34,23,Wunderground v.1.15,2013-06-13 11:45:00,
2013-06-13 07:50:00,66.8,64.4,29.74,WSW,239,7.0,7.0,92,0.11,,,0.35,28,Wunderground v.1.15,2013-06-13 11:50:00,
2013-06-13 07:56:00,66.8,64.4,29.74,SSW,208,8.0,13.0,92,0.08,,,0.36,39,Wunderground v.1.15,2013-06-13 11:56:00,
2013-06-13 08:02:00,66.8,64.4,29.73,SW,219,8.0,8.0,92,0.11,,,0.37,33,Wunderground v.1.15,2013-06-13 12:02:00,
2013-06-13 08:07:00,66.7,64.3,29.73,SW,225,7.0,10.0,92,0.09,,,0.38,35,Wunderground v.1.15,2013-06-13 12:07:00,
2013-06-13 08:12:00,66.7,64.3,29.70,SSW,210,8.0,15.0,92,0.16,,,0.39,40,Wunderground v.1.15,2013-06-13 12:12:00,
2013-06-13 08:18:00,66.6,64.2,29.69,North,360,10.0,15.0,92,0.08,,,0.39,32,Wunderground v.1.15,2013-06-13 12:18:00,
2013-06-13 08:23:00,66.5,64.1,29.68,SSW,193,12.0,16.0,92,0.08,,,0.40,26,Wunderground v.1.15,2013-06-13 12:23:00,
2013-06-13 08:28:00,66.4,64.0,29.67,SSW,209,12.0,19.0,92,0.10,,,0.41,26,Wunderground v.1.15,2013-06-13 12:28:00,
2013-06-13 08:34:00,66.3,63.9,29.67,North,360,9.0,16.0,92,0.11,,,0.42,19,Wunderground v.1.15,2013-06-13 12:34:00,
2013-06-13 08:39:00,66.2,63.8,29.67,North,360,8.0,16.0,92,0.11,,,0.43,18,Wunderground v.1.15,2013-06-13 12:39:00,
2013-06-13 08:44:00,66.1,64.0,29.66,WSW,242,8.0,10.0,93,0.06,,,0.43,26,Wunderground v.1.15,2013-06-13 12:44:00,
2013-06-13 08:50:00,66.0,63.9,29.66,SW,221,8.0,8.0,93,0.04,,,0.43,25,Wunderground v.1.15,2013-06-13 12:50:00,
2013-06-13 08:55:00,65.9,63.8,29.66,SSW,206,7.0,10.0,93,0.00,,,0.43,25,Wunderground v.1.15,2013-06-13 12:55:00,
2013-06-13 09:00:00,65.8,63.7,29.67,SW,235,7.0,7.0,93,0.00,,,0.43,25,Wunderground v.1.15,2013-06-13 13:00:00,
2013-06-13 09:06:00,65.8,63.7,29.67,North,360,6.0,8.0,93,0.00,,,0.43,26,Wunderground v.1.15,2013-06-13 13:06:00,
2013-06-13 09:12:00,65.6,63.2,29.67,SW,222,7.0,9.0,92,0.00,,,0.43,23,Wunderground v.1.15,2013-06-13 13:12:00,
2013-06-13 09:17:00,65.5,63.1,29.66,SSW,202,8.0,9.0,92,0.00,,,0.44,21,Wunderground v.1.15,2013-06-13 13:17:00,
2013-06-13 09:22:00,65.4,63.0,29.65,SSW,210,7.0,8.0,92,0.00,,,0.44,26,Wunderground v.1.15,2013-06-13 13:22:00,
2013-06-13 09:28:00,65.4,63.3,29.64,North,360,5.0,8.0,93,0.00,,,0.44,35,Wunderground v.1.15,2013-06-13 13:28:00,
2013-06-13 09:33:00,65.4,63.3,29.64,South,189,5.0,7.0,93,0.00,,,0.44,44,Wunderground v.1.15,2013-06-13 13:33:00,
2013-06-13 09:38:00,65.3,63.2,29.64,North,360,5.0,7.0,93,0.00,,,0.44,63,Wunderground v.1.15,2013-06-13 13:38:00,
2013-06-13 09:44:00,65.3,63.2,29.63,South,189,6.0,7.0,93,0.00,,,0.44,79,Wunderground v.1.15,2013-06-13 13:44:00,
2013-06-13 09:49:00,65.3,63.2,29.63,SW,218,7.0,7.0,93,0.00,,,0.44,83,Wunderground v.1.15,2013-06-13 13:49:00,
2013-06-13 09:54:00,65.5,63.4,29.63,WSW,238,6.0,8.0,93,0.00,,,0.44,105,Wunderground v.1.15,2013-06-13 13:54:00,
2013-06-13 10:00:00,65.7,63.9,29.63,SSW,211,5.0,6.0,94,0.00,,,0.44,153,Wunderground v.1.15,2013-06-13 14:00:00,
2013-06-13 10:06:00,65.9,64.1,29.63,SW,227,4.0,6.0,94,0.00,,,0.44,176,Wunderground v.1.15,2013-06-13 14:06:00,
2013-06-13 10:11:00,66.2,64.4,29.64,SSW,206,3.0,4.0,94,0.00,,,0.44,204,Wunderground v.1.15,2013-06-13 14:11:00,
2013-06-13 10:16:00,66.5,64.7,29.64,WSW,247,3.0,6.0,94,0.00,,,0.44,225,Wunderground v.1.15,2013-06-13 14:16:00,
2013-06-13 10:21:00,66.8,64.7,29.64,North,360,5.0,9.0,93,0.00,,,0.44,237,Wunderground v.1.15,2013-06-13 14:21:00,
2013-06-13 10:27:00,67.7,65.6,29.65,West,262,6.0,17.0,93,0.00,,,0.44,243,Wunderground v.1.15,2013-06-13 14:27:00,
2013-06-13 10:32:00,68.5,66.1,29.66,SW,231,7.0,11.0,92,0.00,,,0.44,206,Wunderground v.1.15,2013-06-13 14:32:00,
2013-06-13 10:38:00,69.1,65.1,29.67,North,360,9.0,15.0,87,0.00,,,0.44,72,Wunderground v.1.15,2013-06-13 14:38:00,
2013-06-13 10:43:00,69.4,65.4,29.68,SW,223,10.0,11.0,87,0.00,,,0.44,33,Wunderground v.1.15,2013-06-13 14:43:00,
2013-06-13 10:48:00,69.3,64.6,29.68,North,360,11.0,18.0,85,0.00,,,0.44,21,Wunderground v.1.15,2013-06-13 14:48:00,
2013-06-13 10:54:00,69.0,64.6,29.67,WSW,255,12.0,13.0,86,0.00,,,0.45,21,Wunderground v.1.15,2013-06-13 14:54:00,
2013-06-13 10:59:00,68.7,64.7,29.67,WSW,237,10.0,13.0,87,0.07,,,0.46,26,Wunderground v.1.15,2013-06-13 14:59:00,
2013-06-13 11:05:00,68.2,64.2,29.66,SW,232,10.0,18.0,87,0.07,,,0.46,53,Wunderground v.1.15,2013-06-13 15:05:00,
2013-06-13 11:10:00,68.0,64.6,29.66,WSW,242,10.0,18.0,89,0.08,,,0.47,105,Wunderground v.1.15,2013-06-13 15:10:00,
2013-06-13 11:16:00,67.8,64.8,29.66,WSW,248,9.0,18.0,90,0.12,,,0.48,134,Wunderground v.1.15,2013-06-13 15:16:00,
2013-06-13 11:21:00,67.7,64.7,29.66,West,264,9.0,9.0,90,0.06,,,0.48,260,Wunderground v.1.15,2013-06-13 15:21:00,
2013-06-13 11:26:00,68.0,65.6,29.66,North,360,8.0,12.0,92,0.04,,,0.48,141,Wunderground v.1.15,2013-06-13 15:26:00,
2013-06-13 11:32:00,68.1,64.7,29.66,North,360,9.0,11.0,89,0.50,,,0.50,105,Wunderground v.1.15,2013-06-13 15:32:00,
2013-06-13 11:37:00,68.0,64.6,29.65,SW,222,11.0,17.0,89,0.15,,,0.51,107,Wunderground v.1.15,2013-06-13 15:37:00,
2013-06-13 11:42:00,67.9,64.2,29.65,North,360,11.0,29.0,88,0.14,,,0.53,102,Wunderground v.1.15,2013-06-13 15:42:00,
2013-06-13 11:48:00,67.8,64.4,29.62,West,263,13.0,29.0,89,0.19,,,0.54,192,Wunderground v.1.15,2013-06-13 15:48:00,
2013-06-13 11:53:00,68.1,64.7,29.62,West,259,12.0,13.0,89,0.07,,,0.54,394,Wunderground v.1.15,2013-06-13 15:53:00,
2013-06-13 11:58:00,68.5,65.4,29.63,North,360,11.0,13.0,90,0.05,,,0.54,292,Wunderground v.1.15,2013-06-13 15:58:00,
2013-06-13 12:04:00,69.0,65.9,29.62,SW,231,9.0,11.0,90,0.00,,,0.54,248,Wunderground v.1.15,2013-06-13 16:04:00,
2013-06-13 12:09:00,69.6,66.9,29.61,WSW,242,9.0,19.0,91,0.00,,,0.54,991,Wunderground v.1.15,2013-06-13 16:09:00,
2013-06-13 12:15:00,70.9,68.1,29.61,WSW,257,10.0,17.0,91,0.00,,,0.54,763,Wunderground v.1.15,2013-06-13 16:15:00,
2013-06-13 12:20:00,71.5,67.8,29.61,West,275,11.0,11.0,88,0.00,,,0.54,455,Wunderground v.1.15,2013-06-13 16:20:00,
2013-06-13 12:26:00,72.4,69.0,29.61,WSW,243,10.0,18.0,89,0.00,,,0.54,963,Wunderground v.1.15,2013-06-13 16:26:00,
2013-06-13 12:32:00,73.7,69.2,29.60,West,276,11.0,11.0,86,0.00,,,0.54,970,Wunderground v.1.15,2013-06-13 16:32:00,
2013-06-13 12:38:00,74.4,68.9,29.61,WNW,289,10.0,13.0,83,0.00,,,0.54,965,Wunderground v.1.15,2013-06-13 16:38:00,
2013-06-13 12:44:00,75.1,68.5,29.61,WSW,237,11.0,20.0,80,0.00,,,0.54,1056,Wunderground v.1.15,2013-06-13 16:44:00,
2013-06-13 12:49:00,75.7,68.7,29.61,WNW,295,11.0,20.0,79,0.00,,,0.54,962,Wunderground v.1.15,2013-06-13 16:49:00,
2013-06-13 12:55:00,75.8,68.4,29.61,North,360,7.0,9.0,78,0.00,,,0.54,336,Wunderground v.1.15,2013-06-13 16:55:00,
2013-06-13 13:00:00,75.7,68.4,29.61,WSW,240,5.0,9.0,78,0.00,,,0.54,329,Wunderground v.1.15,2013-06-13 17:00:00,
2013-06-13 13:06:00,75.6,68.3,29.62,WNW,298,8.0,12.0,78,0.00,,,0.54,388,Wunderground v.1.15,2013-06-13 17:06:00,
2013-06-13 13:11:00,75.5,67.0,29.62,North,360,9.0,9.0,75,0.00,,,0.54,522,Wunderground v.1.15,2013-06-13 17:11:00,
2013-06-13 13:17:00,75.7,67.2,29.62,NW,324,9.0,14.0,75,0.00,,,0.54,260,Wunderground v.1.15,2013-06-13 17:17:00,
2013-06-13 13:22:00,75.3,66.8,29.62,WSW,242,9.0,10.0,75,0.00,,,0.54,262,Wunderground v.1.15,2013-06-13 17:22:00,
2013-06-13 13:27:00,74.9,66.1,29.62,WNW,286,9.0,14.0,74,0.00,,,0.54,318,Wunderground v.1.15,2013-06-13 17:27:00,
2013-06-13 13:33:00,74.7,66.2,29.63,WSW,257,7.0,9.0,75,0.00,,,0.54,285,Wunderground v.1.15,2013-06-13 17:33:00,
2013-06-13 13:38:00,74.7,66.2,29.63,West,269,5.0,9.0,75,0.00,,,0.54,258,Wunderground v.1.15,2013-06-13 17:38:00,
2013-06-13 13:44:00,74.4,65.6,29.63,WSW,238,6.0,7.0,74,0.00,,,0.54,130,Wunderground v.1.15,2013-06-13 17:44:00,
2013-06-13 13:49:00,74.1,66.0,29.63,North,360,6.0,13.0,76,0.00,,,0.54,102,Wunderground v.1.15,2013-06-13 17:49:00,
2013-06-13 13:54:00,73.9,66.6,29.64,West,266,7.0,14.0,78,0.00,,,0.54,77,Wunderground v.1.15,2013-06-13 17:54:00,
2013-06-13 13:59:00,73.2,65.6,29.64,North,360,6.0,14.0,77,0.00,,,0.55,49,Wunderground v.1.15,2013-06-13 17:59:00,
2013-06-13 14:05:00,72.5,66.0,29.64,North,360,5.0,7.0,80,0.00,,,0.55,33,Wunderground v.1.15,2013-06-13 18:05:00,
2013-06-13 14:11:00,71.6,64.7,29.64,West,272,6.0,11.0,79,0.06,,,0.56,32,Wunderground v.1.15,2013-06-13 18:11:00,
2013-06-13 14:16:00,71.1,66.0,29.63,West,260,4.0,11.0,84,0.19,,,0.58,32,Wunderground v.1.15,2013-06-13 18:16:00,
2013-06-13 14:21:00,70.2,64.8,29.62,NW,316,3.0,6.0,83,0.23,,,0.60,35,Wunderground v.1.15,2013-06-13 18:21:00,
2013-06-13 14:27:00,69.5,64.8,29.62,WNW,294,7.0,13.0,85,0.14,,,0.61,58,Wunderground v.1.15,2013-06-13 18:27:00,
2013-06-13 14:32:00,69.1,64.7,29.60,North,360,7.0,9.0,86,0.08,,,0.61,77,Wunderground v.1.15,2013-06-13 18:32:00,
2013-06-13 14:37:00,68.9,64.9,29.61,North,360,5.0,9.0,87,0.07,,,0.62,100,Wunderground v.1.15,2013-06-13 18:37:00,
2013-06-13 14:43:00,68.5,64.5,29.61,West,279,4.0,6.0,87,0.06,,,0.62,132,Wunderground v.1.15,2013-06-13 18:43:00,
2013-06-13 14:48:00,68.5,65.1,29.61,WNW,288,4.0,9.0,89,0.04,,,0.62,156,Wunderground v.1.15,2013-06-13 18:48:00,
2013-06-13 14:53:00,68.6,65.5,29.62,North,360,3.0,6.0,90,0.00,,,0.62,167,Wunderground v.1.15,2013-06-13 18:53:00,
2013-06-13 14:59:00,68.9,66.2,29.63,North,360,5.0,10.0,91,0.00,,,0.62,172,Wunderground v.1.15,2013-06-13 18:59:00,
2013-06-13 15:05:00,69.0,66.3,29.63,SW,219,7.0,8.0,91,0.00,,,0.62,216,Wunderground v.1.15,2013-06-13 19:05:00,
2013-06-13 15:10:00,69.1,66.4,29.62,North,360,7.0,7.0,91,0.00,,,0.62,262,Wunderground v.1.15,2013-06-13 19:10:00,
2013-06-13 15:15:00,69.4,66.7,29.62,SSW,212,5.0,7.0,91,0.00,,,0.62,299,Wunderground v.1.15,2013-06-13 19:15:00,
2013-06-13 15:21:00,69.8,67.1,29.62,SW,216,4.0,4.0,91,0.00,,,0.62,287,Wunderground v.1.15,2013-06-13 19:21:00,
2013-06-13 15:26:00,70.1,67.0,29.61,SW,234,4.0,4.0,90,0.00,,,0.62,195,Wunderground v.1.15,2013-06-13 19:26:00,
2013-06-13 15:32:00,70.3,67.2,29.60,SSW,207,4.0,8.0,90,0.00,,,0.62,439,Wunderground v.1.15,2013-06-13 19:32:00,
2013-06-13 15:37:00,70.8,67.4,29.60,SSW,199,3.0,8.0,89,0.00,,,0.62,292,Wunderground v.1.15,2013-06-13 19:37:00,
2013-06-13 15:43:00,71.2,66.8,29.60,North,360,2.0,3.0,86,0.00,,,0.62,200,Wunderground v.1.15,2013-06-13 19:43:00,
2013-06-13 15:48:00,71.3,65.9,29.60,WNW,298,3.0,6.0,83,0.00,,,0.62,223,Wunderground v.1.15,2013-06-13 19:48:00,
2013-06-13 15:53:00,71.4,66.3,29.60,West,259,3.0,4.0,84,0.00,,,0.62,188,Wunderground v.1.15,2013-06-13 19:53:00,
2013-06-13 15:59:00,71.5,67.1,29.61,WSW,249,3.0,5.0,86,0.00,,,0.62,93,Wunderground v.1.15,2013-06-13 19:59:00,
2013-06-13 16:05:00,71.2,66.5,29.62,WSW,238,3.0,6.0,85,0.00,,,0.62,95,Wunderground v.1.15,2013-06-13 20:05:00,
2013-06-13 16:10:00,71.1,66.7,29.62,North,360,5.0,7.0,86,0.00,,,0.63,109,Wunderground v.1.15,2013-06-13 20:10:00,
2013-06-13 16:15:00,70.9,66.8,29.63,SW,231,5.0,7.0,87,0.00,,,0.63,76,Wunderground v.1.15,2013-06-13 20:15:00,
2013-06-13 16:21:00,70.6,66.5,29.62,SSW,210,3.0,4.0,87,0.00,,,0.63,204,Wunderground v.1.15,2013-06-13 20:21:00,
2013-06-13 16:26:00,70.4,66.3,29.62,North,360,3.0,5.0,87,0.00,,,0.63,297,Wunderground v.1.15,2013-06-13 20:26:00,
2013-06-13 16:31:00,70.4,66.7,29.62,NW,323,2.0,3.0,88,0.00,,,0.63,315,Wunderground v.1.15,2013-06-13 20:31:00,
2013-06-13 16:37:00,70.5,65.4,29.63,North,360,2.0,5.0,84,0.00,,,0.63,225,Wunderground v.1.15,2013-06-13 20:37:00,
2013-06-13 16:42:00,70.8,65.4,29.63,West,271,4.0,6.0,83,0.00,,,0.63,380,Wunderground v.1.15,2013-06-13 20:42:00,
2013-06-13 16:47:00,71.1,64.6,29.63,ENE,74,4.0,6.0,80,0.00,,,0.63,227,Wunderground v.1.15,2013-06-13 20:47:00,
2013-06-13 16:53:00,71.2,64.7,29.64,NNE,30,3.0,7.0,80,0.00,,,0.63,125,Wunderground v.1.15,2013-06-13 20:53:00,
2013-06-13 16:58:00,70.8,63.6,29.64,North,9,6.0,13.0,78,0.00,,,0.63,139,Wunderground v.1.15,2013-06-13 20:58:00,
2013-06-13 17:04:00,70.4,63.9,29.65,North,360,8.0,10.0,80,0.00,,,0.63,118,Wunderground v.1.15,2013-06-13 21:04:00,
2013-06-13 17:09:00,70.0,63.2,29.65,NNE,23,7.0,10.0,79,0.00,,,0.63,169,Wunderground v.1.15,2013-06-13 21:09:00,
2013-06-13 17:15:00,69.7,63.3,29.65,North,355,7.0,9.0,80,0.00,,,0.63,77,Wunderground v.1.15,2013-06-13 21:15:00,
2013-06-13 17:20:00,69.5,63.1,29.65,North,9,5.0,5.0,80,0.00,,,0.63,74,Wunderground v.1.15,2013-06-13 21:20:00,
2013-06-13 17:26:00,69.3,63.2,29.65,North,9,4.0,7.0,81,0.00,,,0.63,111,Wunderground v.1.15,2013-06-13 21:26:00,
2013-06-13 17:31:00,69.1,62.3,29.65,North,360,6.0,8.0,79,0.00,,,0.63,86,Wunderground v.1.15,2013-06-13 21:31:00,
2013-06-13 17:36:00,69.1,62.7,29.65,NE,46,6.0,8.0,80,0.00,,,0.63,128,Wunderground v.1.15,2013-06-13 21:36:00,
2013-06-13 17:41:00,69.0,62.2,29.65,NNW,335,5.0,12.0,79,0.00,,,0.63,86,Wunderground v.1.15,2013-06-13 21:41:00,
2013-06-13 17:47:00,68.7,61.9,29.66,NNW,333,8.0,16.0,79,0.00,,,0.63,83,Wunderground v.1.15,2013-06-13 21:47:00,
2013-06-13 17:52:00,68.5,62.1,29.65,North,360,8.0,9.0,80,0.00,,,0.63,86,Wunderground v.1.15,2013-06-13 21:52:00,
2013-06-13 17:57:00,68.3,61.5,29.67,North,360,6.0,11.0,79,0.00,,,0.63,63,Wunderground v.1.15,2013-06-13 21:57:00,
2013-06-13 18:03:00,68.1,61.3,29.67,NW,317,9.0,9.0,79,0.00,,,0.63,53,Wunderground v.1.15,2013-06-13 22:03:00,
2013-06-13 18:09:00,67.8,61.4,29.68,North,350,9.0,15.0,80,0.00,,,0.63,93,Wunderground v.1.15,2013-06-13 22:09:00,
2013-06-13 18:14:00,67.5,60.8,29.68,North,360,10.0,13.0,79,0.00,,,0.63,102,Wunderground v.1.15,2013-06-13 22:14:00,
2013-06-13 18:19:00,67.3,60.6,29.68,North,360,8.0,18.0,79,0.00,,,0.63,128,Wunderground v.1.15,2013-06-13 22:19:00,
2013-06-13 18:25:00,67.0,60.3,29.69,WNW,285,11.0,14.0,79,0.00,,,0.63,91,Wunderground v.1.15,2013-06-13 22:25:00,
2013-06-13 18:30:00,66.8,60.1,29.70,North,360,12.0,12.0,79,0.00,,,0.63,153,Wunderground v.1.15,2013-06-13 22:30:00,
2013-06-13 18:35:00,66.8,59.7,29.70,North,360,10.0,14.0,78,0.00,,,0.63,165,Wunderground v.1.15,2013-06-13 22:35:00,
2013-06-13 18:41:00,66.8,59.7,29.70,North,360,7.0,8.0,78,0.00,,,0.63,130,Wunderground v.1.15,2013-06-13 22:41:00,
2013-06-13 18:46:00,66.8,59.7,29.70,North,360,6.0,17.0,78,0.00,,,0.63,97,Wunderground v.1.15,2013-06-13 22:46:00,
2013-06-13 18:51:00,66.7,58.5,29.71,NNW,347,10.0,16.0,75,0.00,,,0.63,88,Wunderground v.1.15,2013-06-13 22:51:00,
2013-06-13 18:57:00,66.6,58.4,29.71,NNE,23,9.0,16.0,75,0.00,,,0.63,120,Wunderground v.1.15,2013-06-13 22:57:00,
2013-06-13 19:02:00,66.6,58.8,29.71,NW,305,5.0,11.0,76,0.00,,,0.63,128,Wunderground v.1.15,2013-06-13 23:02:00,
2013-06-13 19:08:00,66.6,58.4,29.72,West,279,7.0,13.0,75,0.00,,,0.63,77,Wunderground v.1.15,2013-06-13 23:08:00,
2013-06-13 19:13:00,66.5,58.7,29.72,NW,305,9.0,16.0,76,0.00,,,0.63,67,Wunderground v.1.15,2013-06-13 23:13:00,
2013-06-13 19:19:00,66.3,58.5,29.73,North,360,10.0,16.0,76,0.00,,,0.63,62,Wunderground v.1.15,2013-06-13 23:19:00,
2013-06-13 19:24:00,66.3,58.5,29.73,North,360,7.0,13.0,76,0.00,,,0.63,44,Wunderground v.1.15,2013-06-13 23:24:00,
2013-06-13 19:29:00,66.3,58.5,29.73,NW,311,6.0,13.0,76,0.00,,,0.63,39,Wunderground v.1.15,2013-06-13 23:29:00,
2013-06-13 19:35:00,66.2,58.4,29.73,WNW,287,5.0,6.0,76,0.00,,,0.63,44,Wunderground v.1.15,2013-06-13 23:35:00,
2013-06-13 19:40:00,66.2,58.8,29.72,West,281,5.0,12.0,77,0.00,,,0.63,25,Wunderground v.1.15,2013-06-13 23:40:00,
2013-06-13 19:45:00,66.1,58.3,29.73,North,360,7.0,12.0,76,0.00,,,0.63,33,Wunderground v.1.15,2013-06-13 23:45:00,
2013-06-13 19:51:00,66.1,58.7,29.73,South,185,8.0,11.0,77,0.00,,,0.63,30,Wunderground v.1.15,2013-06-13 23:51:00,
2013-06-13 19:56:00,66.1,58.3,29.73,North,360,8.0,13.0,76,0.00,,,0.63,26,Wunderground v.1.15,2013-06-13 23:56:00,
2013-06-13 20:02:00,66.0,58.2,29.73,NW,305,10.0,12.0,76,0.00,,,0.63,23,Wunderground v.1.15,2013-06-14 00:02:00,
2013-06-13 20:08:00,65.9,58.5,29.72,West,278,9.0,12.0,77,0.00,,,0.63,28,Wunderground v.1.15,2013-06-14 00:08:00,
2013-06-13 20:13:00,65.8,58.0,29.73,West,281,7.0,8.0,76,0.00,,,0.63,25,Wunderground v.1.15,2013-06-14 00:13:00,
2013-06-13 20:18:00,65.7,58.3,29.73,North,360,8.0,17.0,77,0.00,,,0.63,21,Wunderground v.1.15,2013-06-14 00:18:00,
2013-06-13 20:23:00,65.8,58.4,29.74,West,279,8.0,9.0,77,0.00,,,0.63,16,Wunderground v.1.15,2013-06-14 00:23:00,
2013-06-13 20:29:00,65.5,58.1,29.74,WSW,254,7.0,12.0,77,0.00,,,0.63,11,Wunderground v.1.15,2013-06-14 00:29:00,
2013-06-13 20:34:00,65.5,58.1,29.75,WNW,288,9.0,14.0,77,0.00,,,0.63,7,Wunderground v.1.15,2013-06-14 00:34:00,
2013-06-13 20:39:00,65.5,58.1,29.74,West,277,9.0,14.0,77,0.00,,,0.63,7,Wunderground v.1.15,2013-06-14 00:39:00,
2013-06-13 20:45:00,65.5,57.7,29.75,NW,316,8.0,13.0,76,0.00,,,0.63,5,Wunderground v.1.15,2013-06-14 00:45:00,
2013-06-13 20:50:00,65.6,57.8,29.75,SW,219,8.0,8.0,76,0.00,,,0.63,0,Wunderground v.1.15,2013-06-14 00:50:00,
2013-06-13 20:56:00,65.6,57.8,29.75,West,268,8.0,20.0,76,0.00,,,0.63,0,Wunderground v.1.15,2013-06-14 00:56:00,
2013-06-13 21:01:00,65.7,57.6,29.76,SW,232,8.0,8.0,75,0.00,,,0.63,0,Wunderground v.1.15,2013-06-14 01:01:00,
2013-06-13 21:06:00,65.7,57.9,29.76,North,11,8.0,13.0,76,0.00,,,0.63,0,Wunderground v.1.15,2013-06-14 01:06:00,
2013-06-13 21:12:00,65.7,57.9,29.76,SW,235,7.0,10.0,76,0.00,,,0.63,0,Wunderground v.1.15,2013-06-14 01:12:00,
2013-06-13 21:17:00,65.7,57.6,29.76,West,277,7.0,15.0,75,0.00,,,0.63,0,Wunderground v.1.15,2013-06-14 01:17:00,
2013-06-13 21:23:00,65.8,57.7,29.76,WNW,301,8.0,9.0,75,0.00,,,0.63,0,Wunderground v.1.15,2013-06-14 01:23:00,
2013-06-13 21:28:00,65.8,58.0,29.76,WNW,298,7.0,11.0,76,0.00,,,0.63,0,Wunderground v.1.15,2013-06-14 01:28:00,
2013-06-13 21:33:00,65.9,57.7,29.76,SW,229,7.0,10.0,75,0.00,,,0.63,0,Wunderground v.1.15,2013-06-14 01:33:00,
2013-06-13 21:38:00,65.9,58.1,29.76,NNW,336,6.0,12.0,76,0.00,,,0.63,0,Wunderground v.1.15,2013-06-14 01:38:00,
2013-06-13 21:44:00,65.8,57.7,29.76,NW,320,2.0,5.0,75,0.00,,,0.63,0,Wunderground v.1.15,2013-06-14 01:44:00,
2013-06-13 21:49:00,65.6,57.8,29.76,WNW,286,4.0,8.0,76,0.00,,,0.63,0,Wunderground v.1.15,2013-06-14 01:49:00,
2013-06-13 21:54:00,65.6,57.8,29.76,NNW,338,7.0,12.0,76,0.00,,,0.63,0,Wunderground v.1.15,2013-06-14 01:54:00,
2013-06-13 22:00:00,65.5,57.4,29.76,NW,312,5.0,14.0,75,0.00,,,0.63,0,Wunderground v.1.15,2013-06-14 02:00:00,
2013-06-13 22:06:00,65.6,57.5,29.76,WNW,295,5.0,14.0,75,0.00,,,0.63,0,Wunderground v.1.15,2013-06-14 02:06:00,
2013-06-13 22:11:00,65.5,57.4,29.76,SW,224,5.0,11.0,75,0.00,,,0.63,0,Wunderground v.1.15,2013-06-14 02:11:00,
2013-06-13 22:16:00,65.5,57.4,29.76,NW,311,8.0,16.0,75,0.00,,,0.63,0,Wunderground v.1.15,2013-06-14 02:16:00,
2013-06-13 22:22:00,65.6,57.1,29.76,WNW,291,9.0,10.0,74,0.00,,,0.63,0,Wunderground v.1.15,2013-06-14 02:22:00,
2013-06-13 22:27:00,65.7,57.2,29.76,NW,325,10.0,15.0,74,0.00,,,0.63,0,Wunderground v.1.15,2013-06-14 02:27:00,
2013-06-13 22:32:00,65.9,57.0,29.75,WNW,297,11.0,11.0,73,0.00,,,0.63,0,Wunderground v.1.15,2013-06-14 02:32:00,
2013-06-13 22:38:00,65.9,57.0,29.75,NW,313,9.0,16.0,73,0.00,,,0.63,0,Wunderground v.1.15,2013-06-14 02:38:00,
2013-06-13 22:43:00,65.9,56.2,29.75,West,271,11.0,14.0,71,0.00,,,0.63,0,Wunderground v.1.15,2013-06-14 02:43:00,
2013-06-13 22:48:00,66.0,56.3,29.75,NW,315,12.0,24.0,71,0.00,,,0.63,0,Wunderground v.1.15,2013-06-14 02:48:00,
2013-06-13 22:54:00,66.0,55.9,29.75,WNW,302,11.0,16.0,70,0.00,,,0.63,0,Wunderground v.1.15,2013-06-14 02:54:00,
2013-06-13 22:59:00,66.1,56.0,29.74,West,279,11.0,16.0,70,0.00,,,0.63,0,Wunderground v.1.15,2013-06-14 02:59:00,
2013-06-13 23:05:00,66.0,55.9,29.75,NNW,339,8.0,11.0,70,0.00,,,0.63,0,Wunderground v.1.15,2013-06-14 03:05:00,
2013-06-13 23:10:00,66.0,55.9,29.75,North,355,6.0,6.0,70,0.00,,,0.63,0,Wunderground v.1.15,2013-06-14 03:10:00,
2013-06-13 23:16:00,65.9,55.8,29.76,NNW,338,7.0,10.0,70,0.00,,,0.63,0,Wunderground v.1.15,2013-06-14 03:16:00,
2013-06-13 23:21:00,65.7,56.0,29.76,WNW,291,7.0,10.0,71,0.00,,,0.63,0,Wunderground v.1.15,2013-06-14 03:21:00,
2013-06-13 23:26:00,65.6,55.9,29.77,WNW,296,9.0,12.0,71,0.00,,,0.63,0,Wunderground v.1.15,2013-06-14 03:26:00,
2013-06-13 23:32:00,65.5,55.8,29.77,NW,316,10.0,11.0,71,0.00,,,0.63,0,Wunderground v.1.15,2013-06-14 03:32:00,
2013-06-13 23:37:00,65.3,55.7,29.77,NW,319,8.0,15.0,71,0.00,,,0.63,0,Wunderground v.1.15,2013-06-14 03:37:00,
2013-06-13 23:42:00,65.1,55.8,29.77,NNW,343,8.0,9.0,72,0.00,,,0.63,0,Wunderground v.1.15,2013-06-14 03:42:00,
2013-06-13 23:48:00,64.8,55.6,29.77,West,273,7.0,16.0,72,0.00,,,0.63,0,Wunderground v.1.15,2013-06-14 03:48:00,
2013-06-13 23:53:00,64.6,55.4,29.77,NW,315,7.0,10.0,72,0.00,,,0.63,0,Wunderground v.1.15,2013-06-14 03:53:00,
2013-06-13 23:58:00,64.5,55.3,29.78,SSW,212,6.0,10.0,72,0.00,,,0.00,0,Wunderground v.1.15,2013-06-14 03:58:00,